Waarnemingen

Advertentie
Mijn weer
Llanes, Spanje (8016): temperatuur & dauwpunt: 12.12.2017 21:00:00 - 18.12.2017 21:00:00 (CET)Llanes, Spanje (8016): windsnelheid & windstoten: 12.12.2017 21:00:00 - 18.12.2017 21:00:00 (CET)Llanes, Spanje (8016): windrichting: 12.12.2017 21:00:00 - 18.12.2017 21:00:00 (CET)Llanes, Spanje (8016): luchtdruk: 12.12.2017 21:00:00 - 18.12.2017 21:00:00 (CET)Llanes, Spanje (8016): zicht: 12.12.2017 21:00:00 - 18.12.2017 21:00:00 (CET)Llanes, Spanje (8016): Zonneschijnduur: 12.12.2017 21:00:00 - 18.12.2017 21:00:00 (CET)Llanes, Spanje (8016): neerslag: 12.12.2017 21:00:00 - 18.12.2017 21:00:00 (CET)
Datum & Tijd tt [°C] td [°C] ff [km/u] ff [kn] fx [km/u] fx [kn] dd ppp [hPa] vv [km] sd [min] rr [mm]
18.12.2017 21:00:00 - - - - - - - - - - -
18.12.2017 20:00:00 13,2 10,2 16 8 51 28 W 1031,4 6 0 0,0
18.12.2017 19:00:00 13,7 9,9 16 9 54 29 W 1031,2 20 0 -
18.12.2017 18:00:00 13,4 9,7 18 10 58 31 W 1030,6 20 0 0,0
18.12.2017 17:00:00 13,8 9,4 19 10 55 30 W 1030,8 20 0 0,0
18.12.2017 16:00:00 13,9 9,2 18 10 54 29 W 1031,0 20 0 0,0
18.12.2017 15:00:00 13,7 8,1 16 9 43 23 W 1031,2 20 0 0,0
18.12.2017 14:00:00 13,7 7,7 24 13 53 29 W 1030,1 20 0 0,0
18.12.2017 13:00:00 12,9 5,6 17 9 36 19 W 1032,3 20 0 -
18.12.2017 12:00:00 11,6 4,6 13 7 32 17 W 1033,4 20 0 0,0
18.12.2017 11:00:00 10,1 3,2 10 6 31 17 W 1034,5 20 0 0,0
18.12.2017 10:00:00 9,0 2,5 13 7 29 16 W 1033,9 20 0 0,0
18.12.2017 09:00:00 8,0 2,3 13 7 26 14 W 1034,4 20 0 0,0
18.12.2017 08:00:00 7,0 1,3 18 10 26 14 WZW 1034,3 20 0 0,0
18.12.2017 07:00:00 6,0 0,6 15 8 28 15 WZW 1033,4 20 0 -
18.12.2017 06:00:00 6,2 1,1 13 7 29 15 ZW 1033,4 20 0 0,0
18.12.2017 05:00:00 6,7 1,7 14 7 27 15 WZW 1033,5 20 0 0,0
18.12.2017 04:00:00 6,6 1,7 11 6 29 16 ZW 1033,4 20 0 0,0
18.12.2017 03:00:00 6,8 2,1 12 6 27 14 ZW 1033,7 20 0 0,0
18.12.2017 02:00:00 7,4 2,3 13 7 28 15 WZW 1033,6 20 0 0,0
18.12.2017 01:00:00 7,7 3,0 13 7 27 15 ZW 1034,7 20 0 -
18.12.2017 00:00:00 8,1 3,8 14 8 28 15 ZW 1034,9 20 0 0,0
17.12.2017 23:00:00 8,4 4,3 13 7 26 14 WZW 1034,6 20 0 0,0
17.12.2017 22:00:00 8,6 4,5 9 5 27 15 ZZW 1034,4 20 0 0,0
17.12.2017 21:00:00 7,9 3,8 11 6 26 14 ZW 1034,8 20 0 0,0
17.12.2017 20:00:00 8,6 3,9 13 7 25 13 WZW 1033,4 20 0 0,0
17.12.2017 19:00:00 9,0 4,3 10 5 34 18 ZW 1033,2 20 0 -
17.12.2017 18:00:00 9,3 4,1 10 5 22 12 ZW 1033,5 20 0 0,0
17.12.2017 17:00:00 10,9 4,1 8 4 24 13 ZW 1033,5 20 0 0,0
17.12.2017 16:00:00 11,7 4,1 10 6 30 16 WNW 1032,6 20 0 0,0
17.12.2017 15:00:00 12,6 4,1 14 8 33 18 WNW 1032,4 20 45 0,0
17.12.2017 14:00:00 13,9 5,8 9 5 29 16 WNW 1032,9 20 60 0,0
17.12.2017 13:00:00 12,4 5,1 10 6 31 17 W 1033,1 20 57 -
17.12.2017 12:00:00 11,7 5,1 8 4 26 14 W 1033,8 20 5 0,0
17.12.2017 11:00:00 10,7 5,5 8 4 27 15 W 1033,6 20 21 0,0
17.12.2017 10:00:00 9,0 4,5 9 5 30 16 WZW 1033,0 20 2 0,0
17.12.2017 09:00:00 7,8 3,8 11 6 29 16 W 1032,7 20 0 0,0
17.12.2017 08:00:00 7,3 3,6 14 8 28 15 WZW 1032,1 20 0 0,0
17.12.2017 07:00:00 7,6 3,8 16 8 37 20 WZW 1031,5 20 0 -
17.12.2017 06:00:00 7,8 4,6 12 6 28 15 W 1031,4 20 0 0,0
17.12.2017 05:00:00 7,6 4,5 13 7 39 21 WZW 1031,2 20 0 1,2
17.12.2017 04:00:00 7,2 4,3 12 6 25 13 ZW 1031,2 20 0 0,0
17.12.2017 03:00:00 7,3 4,5 13 7 24 13 WZW 1031,3 20 0 0,6
17.12.2017 02:00:00 7,7 4,8 9 5 25 13 W 1031,4 7 0 0,4
17.12.2017 01:00:00 7,4 4,3 12 7 25 14 WZW 1031,2 20 0 -
17.12.2017 00:00:00 7,8 4,3 14 7 30 16 WNW 1031,5 15 0 0,6
16.12.2017 23:00:00 7,5 4,1 15 8 28 15 WZW 1030,5 20 0 0,0
16.12.2017 22:00:00 7,4 4,3 13 7 29 16 WZW 1030,5 20 0 0,2
16.12.2017 21:00:00 7,6 4,3 17 9 39 21 WZW 1030,0 20 0 0,6
16.12.2017 20:00:00 8,2 5,0 13 7 29 15 W 1029,7 17 0 0,6
16.12.2017 19:00:00 7,8 4,6 15 8 31 17 W 1028,4 20 0 -
16.12.2017 18:00:00 8,2 5,1 14 7 33 18 W 1027,9 6 0 0,8
16.12.2017 17:00:00 8,5 5,1 15 8 32 17 W 1027,3 17 0 0,2
16.12.2017 16:00:00 8,2 4,8 16 9 34 18 WZW 1026,6 20 0 1,2
16.12.2017 15:00:00 9,9 5,5 12 6 36 20 WNW 1026,2 3,0 6 1,4
16.12.2017 14:00:00 8,8 4,8 16 9 50 27 W 1025,8 20 35 0,6
16.12.2017 13:00:00 8,9 5,3 13 7 40 21 WZW 1025,5 20 15 -
16.12.2017 12:00:00 8,3 4,8 15 8 39 21 W 1025,9 20 0 0,0
16.12.2017 11:00:00 8,1 4,8 17 9 35 19 WZW 1024,9 20 0 1,2
16.12.2017 10:00:00 8,0 4,5 15 8 36 20 W 1023,8 20 0 0,2
16.12.2017 09:00:00 8,3 4,1 17 9 36 19 WZW 1022,8 20 0 0,2
16.12.2017 08:00:00 8,7 4,3 16 8 43 23 W 1022,1 20 0 0,0
16.12.2017 07:00:00 8,2 4,3 16 8 46 25 W 1021,3 20 0 -
16.12.2017 06:00:00 8,4 4,8 15 8 31 17 W 1020,7 20 0 0,0
16.12.2017 05:00:00 7,9 4,6 17 9 35 19 WZW 1020,6 20 0 0,0
16.12.2017 04:00:00 8,2 4,8 15 8 51 28 W 1020,4 20 0 0,8
16.12.2017 03:00:00 8,5 4,6 14 7 50 27 W 1019,6 20 0 0,8
16.12.2017 02:00:00 8,7 4,5 15 8 79 43 W 1019,0 20 0 0,0
16.12.2017 01:00:00 8,5 4,6 17 9 52 28 W 1019,2 20 0 -
16.12.2017 00:00:00 9,0 5,1 13 7 34 19 W 1018,9 11 0 0,4
15.12.2017 23:00:00 9,0 5,0 16 9 42 23 W 1018,4 20 0 0,0
15.12.2017 22:00:00 8,8 5,3 14 7 49 27 W 1017,5 20 0 1,0
15.12.2017 21:00:00 8,5 5,3 16 9 39 21 W 1017,3 20 0 1,4
15.12.2017 20:00:00 9,1 5,6 21 11 56 30 W 1017,1 7 0 1,4
15.12.2017 19:00:00 9,2 5,0 18 10 53 29 W 1015,4 20 0 -
15.12.2017 18:00:00 9,6 5,1 20 11 58 31 W 1014,9 20 0 0,4
15.12.2017 17:00:00 9,6 5,9 17 9 57 31 W 1014,5 20 0 2,2
15.12.2017 16:00:00 10,0 5,5 18 10 61 33 W 1013,6 20 0 0,6
15.12.2017 15:00:00 10,2 5,6 17 9 50 27 W 1013,6 20 13 0,6
15.12.2017 14:00:00 9,8 5,0 22 12 50 27 W 1013,6 20 20 0,8
15.12.2017 13:00:00 11,9 5,3 17 9 51 28 W 1013,4 20 56 -
15.12.2017 12:00:00 10,0 4,8 19 10 53 29 W 1014,0 17 2 0,2
15.12.2017 11:00:00 9,5 5,1 21 11 64 35 W 1014,2 19 26 0,2
15.12.2017 10:00:00 8,9 5,3 15 8 43 23 W 1013,6 20 20 0,0
15.12.2017 09:00:00 7,9 4,6 18 10 54 29 WZW 1013,5 10 0 1,6
15.12.2017 08:00:00 8,2 4,8 14 8 49 26 W 1013,7 4,0 0 3,8
15.12.2017 07:00:00 8,5 4,8 16 9 51 27 W 1012,3 11 0 -
15.12.2017 06:00:00 8,5 5,6 15 8 62 34 W 1012,7 11 0 5,6
15.12.2017 05:00:00 9,9 6,8 30 16 80 43 NW 1012,4 2,9 0 2,4
15.12.2017 04:00:00 13,5 1,1 30 16 59 32 WNW 1010,9 20 0 0,0
15.12.2017 03:00:00 12,3 3,9 21 11 58 31 W 1010,2 20 0 0,0
15.12.2017 02:00:00 12,2 3,6 12 6 58 31 W 1011,0 20 0 0,0
15.12.2017 01:00:00 13,0 3,6 23 13 63 34 W 1012,2 20 0 -
15.12.2017 00:00:00 13,5 2,5 25 14 58 31 W 1012,3 20 0 0,0
14.12.2017 23:00:00 13,0 3,4 20 11 51 28 W 1012,2 20 0 0,0
14.12.2017 22:00:00 12,5 5,9 17 9 38 21 WNW 1012,7 20 0 0,0
14.12.2017 21:00:00 12,8 7,3 15 8 46 25 WNW 1012,6 16 0 0,0
14.12.2017 20:00:00 13,2 8,1 26 14 57 31 W 1012,4 20 0 0,0
14.12.2017 19:00:00 13,2 9,0 29 16 72 39 WNW 1012,5 12 0 -
14.12.2017 18:00:00 13,3 10,0 23 12 44 24 W 1012,8 11 0 0,0
14.12.2017 17:00:00 13,3 10,3 21 11 52 28 WNW 1013,2 8 0 0,0
14.12.2017 16:00:00 13,5 10,5 25 14 52 28 WNW 1013,4 8 0 0,0
14.12.2017 15:00:00 13,7 10,5 27 15 48 26 WNW 1014,0 9 0 0,0
14.12.2017 14:00:00 14,7 11,1 14 8 31 17 WNW 1014,5 10 15 0,0
14.12.2017 13:00:00 13,9 10,6 17 9 35 19 WNW 1015,7 13 8 -
14.12.2017 12:00:00 14,4 11,3 8 5 27 14 WNW 1016,1 7 14 0,0
14.12.2017 11:00:00 13,0 10,4 15 8 36 19 WNW 1016,8 9 2 0,0
14.12.2017 10:00:00 12,5 10,2 10 5 31 17 WNW 1016,9 20 0 0,0
14.12.2017 09:00:00 12,3 9,8 14 8 39 21 WNW 1017,6 5 0 0,6
14.12.2017 08:00:00 12,2 9,8 11 6 39 21 W 1016,9 17 0 1,6
14.12.2017 07:00:00 12,0 9,9 12 7 38 20 W 1018,0 11 0 -
14.12.2017 06:00:00 12,3 10,2 9 5 30 16 W 1018,0 7 0 2,4
14.12.2017 05:00:00 12,6 10,2 16 9 37 20 W 1018,5 4,4 0 1,2
14.12.2017 04:00:00 12,9 10,0 12 6 32 18 W 1018,6 16 0 1,0
14.12.2017 03:00:00 13,2 10,0 13 7 40 22 W 1018,7 9 0 0,2
14.12.2017 02:00:00 13,4 10,8 18 10 48 26 W 1018,7 20 0 0,2
14.12.2017 01:00:00 13,4 11,2 18 10 71 38 W 1019,1 16 0 -
14.12.2017 00:00:00 13,9 11,4 27 14 62 34 WNW 1018,6 15 0 0,2
13.12.2017 23:00:00 14,2 11,6 26 14 52 28 WNW 1018,7 12 0 0,0
13.12.2017 22:00:00 15,0 11,6 27 15 47 26 WNW 1018,4 17 0 0,0
13.12.2017 21:00:00 15,6 11,2 22 12 51 27 WNW 1017,4 20 0 0,0
13.12.2017 20:00:00 17,9 9,6 19 10 49 26 W 1017,0 20 0 0,0
13.12.2017 19:00:00 17,5 9,4 16 9 43 23 W 1016,6 20 0 -
13.12.2017 18:00:00 16,8 9,7 19 10 48 26 WZW 1016,2 20 0 0,0
13.12.2017 17:00:00 14,6 9,4 6 3 14 7 WZW 1016,5 20 0 0,0
13.12.2017 16:00:00 14,7 10,5 1 1 11 6 ZZW 1015,9 5 0 0,0
13.12.2017 15:00:00 15,1 10,0 1 1 5 3 NNO 1016,5 10 3 0,0
13.12.2017 14:00:00 15,3 10,0 0 0 5 3 N 1016,9 8 14 0,0
13.12.2017 13:00:00 14,5 9,3 0 0 9 5 N 1017,9 8 18 -
13.12.2017 12:00:00 14,6 9,6 3 2 13 7 NW 1018,6 4,7 0 0,0
13.12.2017 11:00:00 13,2 8,7 3 1 18 10 WZW 1019,1 20 26 0,0
13.12.2017 10:00:00 11,0 7,0 3 2 22 12 W 1019,5 20 0 0,0
13.12.2017 09:00:00 10,3 6,2 7 4 16 9 ZW 1019,1 20 0 0,0
13.12.2017 08:00:00 11,1 6,7 8 4 21 12 ZZW 1019,5 20 0 0,0
13.12.2017 07:00:00 11,5 7,0 8 4 24 13 ZW 1019,3 20 0 -
13.12.2017 06:00:00 12,1 7,4 5 3 14 7 OZO 1018,6 7 0 0,0
13.12.2017 05:00:00 12,0 7,1 4 2 19 10 ZW 1018,4 7 0 0,0
13.12.2017 04:00:00 11,1 5,6 5 3 20 11 WZW 1019,1 20 0 0,0
13.12.2017 03:00:00 9,7 3,2 2 1 16 9 W 1019,3 20 0 0,0
13.12.2017 02:00:00 9,4 2,9 4 2 21 11 ZW 1019,5 20 0 0,0
13.12.2017 01:00:00 9,1 2,5 7 4 24 13 WZW 1020,1 20 0 -
13.12.2017 00:00:00 10,0 1,7 6 3 23 13 ZW 1020,5 20 0 0,0
12.12.2017 23:00:00 8,9 1,7 8 5 23 13 ZW 1020,6 20 0 0,0
12.12.2017 22:00:00 9,1 1,7 8 4 24 13 WZW 1020,5 20 0 0,0
12.12.2017 21:00:00 9,2 2,1 6 4 24 13 W 1020,1 20 0 0,0

tt = temperatuur
td = dauwpunt
ff = windsnelheid
fx = windstoten
dd = windrichting
ppp = luchtdruk
vv = zicht
sd = Zonneschijnduur
rr = neerslag

Weerstations in de omgeving